Regional Weather Roundup
Issued by NWS Wakefield, VA

Home | Current Version | Previous Version | Graphics & Text | Print | Product List | Glossary On
Versions: 1 2 3 4 5 6 7 8 9 10 11 12 13 14 15 16 17 18 19 20 21 22 23 24 25 26 27 28 29 30 31 32 33 34 35 36 37 38 39 40 41 42 43 44 45 46 47 48 49 50
000
ASUS41 KAKQ 290110
RWRAKQ

REGIONAL WEATHER ROUNDUP
NATIONAL WEATHER SERVICE WAKEFIELD VA
800 PM EST FRI NOV 28 2014

Note: "fair" indicates few or no clouds below 12,000 feet with no
significant weather and/or obstructions to visibility. * = Denotes
station may not report precipitation (e.g., rain,snow,etc.),
thunder or fog.

VAZ042-051-052>054-056-290200-
NORTHERN VIRGINIA

CITY           SKY/WX    TMP DP  RH WIND       PRES   REMARKS
WASH NATIONAL  PTCLDY    36  17  46 NW6       30.31R
DULLES         CLEAR     27  19  72 CALM      30.30R
FORT BELVOIR   CLEAR     28  21  76 NW2       30.32R
QUANTICO       CLEAR     29  22  75 NW6       30.33R
FREDERICKSBRG* CLEAR     30  23  75 CALM      30.31R
STAFFORD*      CLEAR     26  19  75 CALM      30.35R
WARRENTON      CLEAR     25  25 100 SE5       30.29R
CULPEPER*      CLEAR     25  19  80 CALM      30.30R
MANASSAS*      CLEAR     27  25  93 SE3       30.31R
LEESBURG*      CLEAR     32  23  69 NW3       30.29S
WINCHESTER     PTCLDY    28  18  64 CALM      30.27S
FRONT ROYAL*   CLEAR     28  19  69 CALM      30.25F
LURAY*         PTCLDY    28  25  86 SE3       30.24F
$$

VAZ048-049-060>072-079>083-290200-
CENTRAL AND SOUTH CENTRAL VIRGINIA

CITY           SKY/WX    TMP DP  RH WIND       PRES   REMARKS
RICHMOND       PTCLDY    32  22  66 CALM      30.30R
CHESTERFIELD*  CLEAR     27  12  54 CALM      30.31R
PETERSBURG*    CLEAR     28  26  94 CALM      30.31S
HANOVER        CLEAR     28  22  78 CALM      30.32R
TAPPAHANNOCK*  CLEAR     29  22  77 CALM      30.32R
QUINTON*       CLEAR     29  24  80 CALM      30.31R
CHARLOTTSVILLE CLOUDY    34  18  52 CALM      30.27R
GORDONSVILLE*  CLEAR     28  21  76 CALM      30.28S
ORANGE*        CLEAR     28  23  80 CALM      30.30S
LOUISA*        CLEAR     27  21  80 CALM      30.27S
BUMPASS*       CLEAR     27  22  79 E3        30.30R
FARMVILLE*     FAIR      28  17  62 CALM      30.29R
CREWE*         CLEAR     28  24  87 CALM      30.29R
FORT PICKETT*  CLEAR     29  25  83 CALM      30.30R
CHASE CITY*    CLEAR     31  27  86 CALM      30.30R
CLARKSVILLE*   CLEAR     30  27  86 CALM      30.30R
SOUTH HILL*    CLEAR     28  25  89 CALM      30.36R
LAWRENCEVILLE* CLEAR     30  27  86 CALM      30.30R
$$

VAZ088>098-290200-
SOUTHEAST VIRGINIA

CITY           SKY/WX    TMP DP  RH WIND       PRES   REMARKS
NORFOLK        CLEAR     33  23  66 SW3       30.31R
VIRGINIA BEACH CLEAR     33  25  72 CALM      30.30S
NORFOLK NAVAL  PTCLDY    38  23  55 CALM      30.32S
WEST POINT*    CLEAR     30  25  82 CALM      30.33R
SALUDA*        FAIR      29  23  79 CALM      30.31R
NEWPORT NEWS   CLEAR     33  25  72 CALM      30.31R
LANGLEY AFB    CLEAR     31  26  82 S2        30.32R
FORT EUSTIS    CLEAR     32  23  70 CALM      30.29S
WILLIAMSBURG*  CLEAR     34  28  80 CALM      30.32R
HR EXEC AP*    CLEAR     27  23  86 CALM      30.33R
FRANKLIN*      CLEAR     28  27  93 CALM      30.31S
WAKEFIELD      CLEAR     29  26  89 CALM      30.31R
$$

VAZ020-022-025-037-045-290200-
WEST CENTRAL AND SOUTHWEST VIRGINIA

CITY           SKY/WX    TMP DP  RH WIND       PRES   REMARKS
STAUNTON*      PTCLDY    30  20  67 CALM      30.25F
WAYNESBORO*    CLOUDY    30  17  57 SW5       30.22F
HOT SPRINGS VA CLEAR     19  14  82 SW12      30.09F WCI   7
LYNCHBURG      CLEAR     27  18  69 CALM      30.28S
DANVILLE       CLEAR     29  22  75 CALM      30.30S
SOUTH BOSTON*  CLEAR     30  22  70 CALM      30.30S
MARTINSVILLE   PTCLDY    28  24  83 CALM      30.30S
ROANOKE        CLEAR     31  18  58 CALM      30.27F
BLACKSBURG     CLEAR     25  21  86 CALM      30.23F
DUBLIN*        CLEAR     29  22  75 S3        30.23F
MARION*        PTCLDY    28  21  75 W5        30.23S
HILLSVILLE*    CLEAR     25  19  77 SE3       30.19F
RICHLANDS*     PTCLDY    31  22  68 S6        30.18F
WISE*          CLEAR     30  19  64 SW8       30.18F
ABINGDON*      CLEAR     30  24  78 CALM      30.23F
$$

MDZ021>025-VAZ099-100-290200-
SOUTHERN MARYLAND AND THE DELMARVA PENINSULA

CITY           SKY/WX    TMP DP  RH WIND       PRES   REMARKS
PATUXENT RIVER CLEAR     27  21  78 W5        30.31R
BAY BRIDGE APT   N/A     34  19  55 W3        30.30S
LEONARDTOWN    CLEAR     28  21  74 CALM      30.32R
DOVER          CLEAR     30  19  62 SW2       30.27R
GEORGETOWN     CLEAR     30  19  63 SW3       30.30R
EASTON         NOT AVBL
CAMBRIDGE      CLEAR     32  27  80 CALM      30.30R
SALISBURY      CLEAR     28  21  75 CALM      30.30R
OCEAN CITY     CLEAR     26  21  81 CALM      30.30S
WALLOPS ISLAND CLEAR     29  21  72 CALM      30.31R
ACCOMACK*      CLEAR     30  23  74 CALM      30.30R
$$

NCZ012>017-030>032-290200-
NORTH CENTRAL AND EASTERN NORTH CAROLINA

CITY           SKY/WX    TMP DP  RH WIND       PRES   REMARKS
ROANOKE RAPIDS CLEAR     28  27  93 CALM      30.31F
RALEIGH        PTCLDY    32  23  69 CALM      30.32R
ELIZABETH CITY CLEAR     34  25  69 CALM      30.32S
AHOSKIE*       CLEAR     29  24  84 CALM      30.33R
EDENTON*         N/A     32  27  83 CALM      30.32S
CURRITUCK*     CLEAR     32  26  79 CALM      30.32S
KILL DEVIL HLS CLEAR     38  23  54 CALM      30.30S
MANTEO         CLEAR     39  24  53 N3        30.31S
CAPE HATTERAS  CLEAR     39  24  55 VRB6      30.32R
TARBORO*       CLEAR     31  29  92 CALM      30.33S
GOLDSBORO      CLEAR     33  29  85 CALM      30.32R
WASHINGTON     CLEAR     32  27  81 CALM      30.33S
GREENVILLE     CLEAR     32  30  93 CALM      30.33S
NEW BERN       PTCLDY    33  27  78 CALM      30.34R
WILMINGTON     CLEAR     35  31  85 CALM      30.34R
$$

VAZ048-290200-
ELSEWHERE

CITY           SKY/WX    TMP DP  RH WIND       PRES   REMARKS
HARRISBURG PA  MOCLDY    29  15  56 W7        30.28R
BALTIMORE      PTCLDY    28  18  66 CALM      30.29S
ANNAPOLIS      CLEAR     32  17  54 CALM      30.30S
ANDREWS AFB    CLEAR     32  18  54 W3        30.29R
PHILADELPHIA   PTCLDY    31  16  54 W7        30.29R
WILDWOOD NJ*   CLEAR     32  16  51 N5        30.28R
HENDERSON NC   CLEAR     31  27  87 CALM      30.31R
GREENSBORO     PTCLDY    33  22  63 SW3       30.27S
ROCKY MOUNT    CLEAR     30  25  81 CALM      30.32S
$$

VAZ100-290200-
MARINE

STATION/POSITION TIME  TEMP    WIND        PRES    WAVE   SWELL
                       AIR SEA DIR/SP/G            HT/PER HT/PER
                 (UTC) (F)     (DEG/KT/KT) (MB)    (FT/S) (FT/S)
CAPE MAY NJ      0100   35 44  340/  8/ 12 1025.3R
LEWES DE         0100   34 46  280/  5/  7 1025.6R
15NM E FENWICK I 0100   38 53              1025.2R   3/ 4
OCEAN-CITY-INLET 0100   34 46  290/  4/  5 1025.6S
WACHAPREAGUE VA  0100   32 44   CALM  /  1 1026.0R
THOMAS POINT MD  0100   36 45  290/  8/ 10 1027.3R
GOOSES REEF MD   0100   37 46  320/  8/ 12 1026.6R   1
COVE POINT MD    0100   36     340/  9/ 11 1026.0R
SOLOMONS ISLAND  0100      48                N/A
BISHOPS HEAD MD  0100   35 42  320/  5/  7 1025.4S
PINEY POINT MD   0100           40/  2/  3   N/A
POTOMAC MD       0100   37 47   10/  6/  8 1025.4R   1/ 3
CAMBRIDGE MD     0100   34 44  240/  3/  5 1025.8R
LEWISETTA VA     0100   35 45  290/  3/  4 1026.0R
RAPPAHANNOCK LGT 0100          310/  6/  8 1026.4R
STINGRAY PT      0100   39 48  350/  6/  8 1026.6R   1
YORK RVR RNG VA  0100   40     330/  5/  6 1025.7R
YORKTOWN VA      0100   37 49  210/  1/  2 1026.0R
JAMESTOWN VA     0100   37 48  260/  4/  6   N/A     0
DOMINION TERM VA 0100   39      CALM  /  2 1026.3S
KIPTOPEKE VA     0100      52   20/  2/  5   N/A
CHES BAY BRIDGE  0100   41 49  280/  5/  7 1025.7R
CAPE HENRY VA    0100   39     270/  4/  5 1024.8R
CHESAPEAKE LGHT  0000   41     330/ 11/ 13 1026.6R
WILLOUBY STN VA  0100   40     360/  6/  6 1024.9R
S CRANEY ISL VA  0100          220/  4/  4 1026.2R
CAPE HENRY BUOY  0000      54                N/A     3/ 6
1ST LANDING BUOY 0100   42 50  290/  6/ 10 1025.8R   1/ 3
CAPE CHARLES BUO 0100      53                N/A     3/ 8   2/ 8
64NM E OF VA BCH 0100   44 62  340/ 16/ 21 1025.3R   5/ 7   3/ 7
DUCK PIER NC     0100   41 52  330/  8/ 10 1025.5R
44100 DUCK FRF   0100      56                N/A     4/ 7   2/11
44056 DUCK FRF   0100      54                N/A     4/ 7
OREGON INLET NC  0100   38 52  330/  5/  6 1026.3S
HATTERAS NC      0100   43 53  330/ 10/ 14 1026.7R
DIAMOND SHLS NC  0100   42     330/ 10/ 16 1026.5R   4/10   3/10
CAPE LOOKOUT NC  0000   43     360/  7/  8 1026.4R
$$


USA.gov is the U.S. government's official web portal to all federal, state and local government web resources and services.